[[{"header":{"parameterUnit":"m.s-1","parameterCategory":1,"la1":30.2991,"la2":30.254,"lo1":-89.0895,"lo2":-89.0444,"dy":0.0017,"dx":0.0017,"nx":28,"ny":28,"refTime":"2023-07-27T21:00:00:Z","depth":0,"parameterNumber":2,"parameterNumberName":"U-component_of_WINDS"},"data":[0,0,0,0,0,0,0,0,0,0,0,0,0,0,0,0,0,0,0,0,0,0,0,0,0,0,0,0,0,0,0,0,0,0,0,0,0,0,0,0,0,0,0,0,0,0,0,0,0,0,0,0,0,0,0,0,0,0,1.3278,1.3279,0,1.3386,1.3388,1.3389,1.342,1.3419,1.3419,1.3418,1.3528,1.3532,1.3535,0,0,0,0,0,0,0,0,0,0,0,0,0,1.3097,1.31,1.3278,1.328,1.3281,1.3386,1.3388,1.3389,1.342,1.3419,1.3418,1.3418,1.3527,1.3531,1.3536,0,0,0,0,0,0,0,0,0,0,0,0,0,1.3187,1.3101,1.3278,1.3309,1.3313,1.3386,1.3388,1.339,1.342,1.3419,1.3418,1.3417,1.3526,1.3531,1.3536,1.3586,0,0,1.3552,1.3554,0,0,0,0,0,0,0,0,1.3182,1.3194,1.3303,1.3307,1.3311,1.3389,1.3364,1.3455,1.342,1.3379,1.3418,1.3417,1.3483,1.3491,1.3514,1.3591,1.3596,1.3553,1.3556,1.3558,1.356,0,0,0,0,0,0,0,1.3176,1.319,1.3321,1.3305,1.331,1.3317,1.3329,1.3382,1.3435,1.3383,1.3385,1.3398,1.3485,1.3508,1.3516,1.3598,1.3552,1.3557,1.356,1.3562,1.372,1.3721,0,0,0,0,0,0,1.3164,1.3184,1.3318,1.3324,1.3243,1.3321,1.3334,1.3365,1.3434,1.3444,1.3398,1.3399,1.35,1.351,1.352,1.3582,1.3558,1.3563,1.3566,1.3719,1.3721,1.3722,0,0,0,0,0,0,1.316,1.3176,1.3313,1.3255,1.3273,1.3325,1.3359,1.3367,1.3391,1.3446,1.3455,1.3413,1.35,1.3513,1.3569,1.3587,1.3565,1.357,1.3718,1.372,1.3721,1.3707,0,0,0,0,0,0,1.3155,1.3174,1.3194,1.3255,1.3276,1.336,1.336,1.337,1.34,1.3402,1.3462,1.3471,1.35,1.3561,1.3574,1.3593,1.3574,1.3717,1.3719,1.3721,1.3706,1.3708,1.371,0,0,0,0,0,1.3149,1.3186,1.3195,1.3211,1.3302,1.3361,1.3373,1.3406,1.3401,1.3421,1.3456,1.3469,1.3583,1.3567,1.3582,1.3603,1.3716,1.3718,1.372,1.3706,1.3708,1.371,0,0,0,0,0,0,1.3126,1.3195,1.3205,1.3264,1.3307,1.3367,1.3393,1.3407,1.3452,1.3451,1.349,1.3503,1.3556,1.3585,1.3566,1.3654,1.3649,1.3655,1.3633,1.3636,1.3637,1.3629,1.3578,0,0,0,0,0,1.3128,1.3171,1.3229,1.3275,1.3296,1.334,1.3368,1.3389,1.3435,1.3453,1.3492,1.3535,1.3581,1.361,1.3655,1.3711,1.3724,1.3733,1.3734,1.3735,1.3739,1.377,1.3774,1.3729,1.3729,1.3729,0,0,1.3132,1.3175,1.32,1.3271,1.3307,1.335,1.3355,1.3401,1.3433,1.346,1.3515,1.3545,1.3596,1.3652,1.3679,1.3678,1.3754,1.3738,1.3739,1.3742,1.3773,1.3777,1.378,1.3731,1.3731,1.3731,0,0,1.3162,1.3199,1.3241,1.3277,1.333,1.336,1.337,1.3427,1.3448,1.3504,1.3525,1.3563,1.3641,1.3676,1.3704,1.3746,1.3759,1.376,1.3768,1.3797,1.3801,1.3804,1.3818,1.3822,1.3764,1.3764,1.3764,0,1.3161,1.3227,1.3261,1.3305,1.3336,1.3362,1.3404,1.3436,1.3502,1.3522,1.352,1.3617,1.3653,1.3717,1.3727,1.3749,1.3761,1.3753,1.3797,1.3801,1.3805,1.3818,1.3823,1.3763,1.3763,1.3763,1.3763,0,1.3222,1.3267,1.3295,1.3357,1.339,1.3433,1.3473,1.3503,1.3521,1.355,1.3606,1.3651,1.3704,1.3721,1.374,1.3787,1.3785,1.379,1.3786,1.3808,1.3821,1.3827,1.3763,1.3763,1.3763,1.3763,0,0,1.324,1.3321,1.333,1.3358,1.3419,1.3454,1.3498,1.3551,1.3575,1.3619,1.3656,1.372,1.3725,1.3756,1.3779,1.3805,1.3833,1.3806,1.3808,1.3809,1.3887,1.3882,1.3888,1.3843,1.3844,1.3845,1.3882,0,1.3277,1.3356,1.3388,1.3452,1.3494,1.3519,1.3557,1.3598,1.3626,1.3665,1.3697,1.3741,1.3744,1.3764,1.379,1.3824,1.3849,1.3822,1.3876,1.3878,1.3862,1.3895,1.3891,1.3924,1.3888,1.3889,1.389,0,1.333,1.3374,1.3443,1.3498,1.3516,1.355,1.36,1.3637,1.3684,1.3703,1.3737,1.3758,1.3804,1.3797,1.3861,1.3841,1.3865,1.3885,1.3887,1.3893,1.3885,1.3901,1.3936,1.3941,1.3898,1.3898,1.3897,0,1.3335,1.3412,1.3463,1.3486,1.3552,1.3574,1.3603,1.3648,1.3677,1.3721,1.374,1.3788,1.3815,1.3851,1.3884,1.3876,1.3944,1.394,1.396,1.3959,1.3973,1.3971,1.4011,1.3989,1.3989,1.3989,1.3989,0,1.3372,1.3413,1.3466,1.3497,1.3543,1.3579,1.3623,1.3653,1.3693,1.3729,1.3754,1.3788,1.3829,1.3868,1.3894,1.3942,1.3954,1.397,1.3976,1.3967,1.3965,1.3983,1.3981,1.3991,1.399,1.399,1.399,0,1.3386,1.3423,1.348,1.3537,1.3552,1.3583,1.3632,1.3662,1.3692,1.3738,1.375,1.3796,1.3843,1.388,1.3941,1.3958,1.4008,1.4015,1.3992,1.3995,1.4012,1.401,1.4065,1.4073,1.4046,1.4047,1.4047,0,1.3407,1.3438,1.3499,1.3525,1.3553,1.3596,1.3625,1.3661,1.3691,1.3746,1.377,1.3818,1.3859,1.3932,1.3971,1.4017,1.4025,1.4041,1.4032,1.4022,1.4024,1.4022,1.4024,1.4042,1.4042,1.4042,1.4042,0,1.3439,1.3456,1.3498,1.3546,1.3581,1.3621,1.3661,1.3681,1.3725,1.3757,1.3805,1.3836,1.3898,1.3946,1.3996,1.4024,1.404,1.4045,1.4052,1.4043,1.4027,1.4035,1.3994,1.4043,1.4043,1.4043,1.4043,1.4043,1.3456,1.3485,1.3532,1.3578,1.3612,1.3649,1.368,1.3713,1.3754,1.3807,1.3826,1.3875,1.392,1.3989,1.4018,1.4056,1.4057,1.4067,1.407,1.4071,1.407,1.4022,1.4066,1.4066,1.4066,1.4066,1.4066,0,1.3489,1.352,1.3562,1.3618,1.3654,1.3666,1.3711,1.3739,1.3783,1.3823,1.3863,1.3917,1.3963,1.4005,1.4052,1.4075,1.4083,1.4086,1.4085,1.4091,1.4067,1.4056,1.4079,1.4079,1.4079,1.4079,1.4079,1.4079,1.351,1.356,1.3582,1.3648,1.3679,1.3728,1.3752,1.3786,1.3818,1.3878,1.3916,1.3943,1.3984,1.4035,1.4077,1.4088,1.4104,1.4105,1.4117,1.4094,1.4092,1.4091,1.408,1.4108,1.4108,1.4138,1.4138,1.4138]},{"header":{"parameterUnit":"m.s-1","parameterCategory":1,"la1":30.2991,"la2":30.254,"lo1":-89.0895,"lo2":-89.0444,"dy":0.0017,"dx":0.0017,"nx":28,"ny":28,"refTime":"2023-07-27T21:00:00:Z","depth":0,"parameterNumber":3,"parameterNumberName":"V-component_of_WINDS"},"data":[0,0,0,0,0,0,0,0,0,0,0,0,0,0,0,0,0,0,0,0,0,0,0,0,0,0,0,0,0,0,0,0,0,0,0,0,0,0,0,0,0,0,0,0,0,0,0,0,0,0,0,0,0,0,0,0,0,0,4.8788,4.8788,0,4.8761,4.8761,4.8761,4.875,4.875,4.875,4.875,4.8719,4.8718,4.8717,0,0,0,0,0,0,0,0,0,0,0,0,0,4.8826,4.8826,4.8788,4.8788,4.8788,4.8761,4.8761,4.8761,4.875,4.875,4.875,4.875,4.8719,4.8718,4.8717,0,0,0,0,0,0,0,0,0,0,0,0,0,4.8806,4.8825,4.8788,4.8779,4.8778,4.8761,4.8761,4.8761,4.875,4.875,4.875,4.8751,4.872,4.8718,4.8717,4.8706,0,0,4.8713,4.8712,0,0,0,0,0,0,0,0,4.8807,4.8804,4.8781,4.878,4.8779,4.8759,4.8763,4.8742,4.875,4.8761,4.875,4.8751,4.8732,4.873,4.8724,4.8704,4.8703,4.8713,4.8712,4.8711,4.8711,0,0,0,0,0,0,0,4.8808,4.8805,4.8778,4.8781,4.8779,4.8775,4.8772,4.8759,4.8746,4.876,4.8759,4.8756,4.8731,4.8726,4.8723,4.8703,4.8713,4.8711,4.8711,4.871,4.867,4.867,0,0,0,0,0,0,4.8812,4.8807,4.8778,4.8777,4.8793,4.8774,4.8771,4.8765,4.8746,4.8743,4.8756,4.8756,4.8728,4.8725,4.8722,4.8707,4.8711,4.871,4.8709,4.867,4.867,4.867,0,0,0,0,0,0,4.8813,4.8809,4.8779,4.8791,4.8787,4.8774,4.8767,4.8765,4.8759,4.8743,4.874,4.8753,4.8728,4.8724,4.871,4.8706,4.8709,4.8708,4.867,4.867,4.867,4.8677,0,0,0,0,0,0,4.8814,4.881,4.8807,4.8791,4.8787,4.8769,4.8767,4.8764,4.8757,4.8756,4.8739,4.8737,4.8728,4.8712,4.8708,4.8704,4.8707,4.8671,4.867,4.867,4.8677,4.8676,4.8676,0,0,0,0,0,4.8815,4.8809,4.8807,4.8803,4.8783,4.8769,4.8766,4.8757,4.8757,4.8753,4.8742,4.8737,4.8707,4.8711,4.8707,4.8701,4.8671,4.867,4.867,4.8677,4.8677,4.8676,0,0,0,0,0,0,4.8823,4.8807,4.8804,4.8793,4.8783,4.8767,4.8762,4.8757,4.8746,4.8745,4.8733,4.8729,4.8715,4.8707,4.8712,4.8688,4.8688,4.8687,4.8695,4.8694,4.8694,4.8696,4.8706,0,0,0,0,0,4.8824,4.8816,4.8801,4.8793,4.8788,4.8776,4.877,4.8763,4.8751,4.8746,4.8735,4.8722,4.871,4.8702,4.8689,4.8675,4.867,4.8669,4.8669,4.8669,4.8668,4.8658,4.8657,4.8668,4.8668,4.8668,0,0,4.8825,4.8815,4.8811,4.8794,4.8786,4.8775,4.8772,4.8762,4.8754,4.8744,4.873,4.8721,4.8706,4.8691,4.8684,4.8684,4.8664,4.8668,4.8669,4.8667,4.8657,4.8656,4.8655,4.8667,4.8667,4.8668,0,0,4.8822,4.8814,4.8806,4.8797,4.8784,4.8776,4.8774,4.8759,4.8752,4.8738,4.8731,4.872,4.8699,4.8688,4.8679,4.867,4.8664,4.8666,4.8665,4.8656,4.8655,4.8654,4.8649,4.8648,4.8665,4.8665,4.8665,0,4.8825,4.8811,4.8802,4.8792,4.8785,4.8776,4.8767,4.8758,4.8741,4.8735,4.8735,4.8707,4.8696,4.8678,4.8676,4.867,4.8665,4.8668,4.8656,4.8655,4.8654,4.8649,4.8648,4.8665,4.8665,4.8665,4.8665,0,4.8814,4.8804,4.8799,4.8784,4.8775,4.8766,4.8754,4.8746,4.874,4.8731,4.8715,4.8702,4.8686,4.8681,4.8675,4.8661,4.8661,4.8659,4.8658,4.8653,4.8649,4.8647,4.8666,4.8666,4.8666,4.8666,0,0,4.8816,4.8796,4.8794,4.8786,4.877,4.8761,4.875,4.8736,4.8728,4.8716,4.8705,4.8687,4.8684,4.8674,4.8666,4.8658,4.865,4.8656,4.8656,4.8654,4.8632,4.8633,4.8632,4.8646,4.8645,4.8645,4.8633,0,4.8811,4.8792,4.8783,4.8768,4.8758,4.8749,4.8739,4.8727,4.8718,4.8706,4.8695,4.8682,4.868,4.8674,4.8665,4.8653,4.8645,4.8653,4.8634,4.8633,4.8637,4.863,4.8632,4.8621,4.8631,4.8631,4.863,0,4.8802,4.8791,4.8775,4.8758,4.8754,4.8745,4.873,4.872,4.8705,4.8698,4.8687,4.8679,4.8665,4.8665,4.8644,4.865,4.8641,4.8634,4.8633,4.863,4.8631,4.8626,4.8617,4.8615,4.8628,4.8628,4.8628,0,4.8804,4.8785,4.8772,4.8766,4.8747,4.8741,4.8732,4.8718,4.8709,4.8695,4.8689,4.8673,4.8664,4.865,4.8638,4.8639,4.8617,4.8617,4.8609,4.861,4.8605,4.8606,4.8594,4.86,4.86,4.8601,4.8601,0,4.8798,4.8788,4.8773,4.8765,4.8753,4.8742,4.8729,4.872,4.8707,4.8695,4.8686,4.8675,4.8659,4.8646,4.8635,4.8618,4.8614,4.8607,4.8604,4.8608,4.8609,4.8602,4.8602,4.86,4.86,4.86,4.86,0,4.8799,4.8788,4.8774,4.8757,4.8752,4.8744,4.8728,4.8719,4.8709,4.8695,4.8691,4.8674,4.8658,4.8644,4.8621,4.8614,4.8596,4.8593,4.8602,4.86,4.8593,4.8594,4.8576,4.8573,4.8582,4.8582,4.8582,0,4.8796,4.8788,4.877,4.8763,4.8755,4.8743,4.8734,4.8721,4.8712,4.8693,4.8686,4.8669,4.8655,4.8628,4.8613,4.8595,4.8591,4.8586,4.8588,4.8591,4.8589,4.859,4.8588,4.8586,4.8586,4.8586,4.8586,0,4.8791,4.8786,4.8774,4.876,4.875,4.8738,4.8725,4.8719,4.8704,4.8693,4.8677,4.8666,4.8643,4.8625,4.8605,4.8594,4.8586,4.8585,4.8582,4.8585,4.859,4.8586,4.86,4.8586,4.8586,4.8586,4.8586,4.8586,4.8789,4.8782,4.8768,4.8754,4.8744,4.8732,4.8722,4.8711,4.8697,4.8679,4.8672,4.8654,4.8637,4.861,4.8598,4.8583,4.8582,4.8578,4.8577,4.8576,4.8576,4.8593,4.8579,4.8579,4.8579,4.8579,4.8579,0,4.8784,4.8774,4.8762,4.8745,4.8734,4.8729,4.8714,4.8704,4.869,4.8675,4.8661,4.8641,4.8623,4.8606,4.8587,4.8577,4.8573,4.8572,4.8573,4.857,4.8579,4.8583,4.8576,4.8576,4.8576,4.8576,4.8576,4.8576,4.8779,4.8766,4.8758,4.8738,4.8728,4.8712,4.8704,4.8692,4.868,4.8658,4.8644,4.8633,4.8617,4.8596,4.8578,4.8573,4.8566,4.8566,4.856,4.8569,4.8569,4.857,4.8573,4.8565,4.8565,4.8552,4.8552,4.8552]}]]